Вернуться в каталог

STARLINK-4197

АктивенСвязьVLEO
NORAD 52849·PAYLOAD·🇺🇸 United States

Запущен Jun 17, 2022 с Cape Canaveral Space Force Station

Loading…

Ближайшие Пролёты (ближайшие 24 часа)

TLE

СвежийSource: CelesTrak SupGP

Эпоха: Sep 15, 2026, 00:22 UTC

1 52849C 22062V   26258.01576389 -.00007288  00000+0 -20847-3 0  2580
2 52849  53.1574 243.5877 0001387  94.6185 325.5051 15.35408927    19

Отслеживайте STARLINK-4197 в реальном времени с AllMySat

Download on the App Store